Amateur Radio Satellites - All Passes

Search period start: 19 May 2013 23:04
Search period end: 20 May 2013 23:04
Location: McCloud Nature Park, 39.8272°N, 86.6824°W

Satellite Date Start Highest point End Downlink Frequencies (MHz)
Time Altitude Azimuth
JAS-2 19 May 23:14:35 23:20:35 25° 270° (W) 23:26:49 435.800 - 435.900 CW/SSB, 435.910 FM
OPAL 19 May 23:39:45 23:42:42 15° 267° (W) 23:45:40 ?
KITSAT 1 20 May 00:05:34 00:13:38 79° 301° (WNW) 00:21:47 435.175 FM
RS-15 20 May 01:08:49 01:19:36 49° 47° (NE) 01:30:02 29.354 - 29.394 USB, Beacon 29.352 USB
Oscar 19 20 May 01:20:41 01:22:36 12° 89° (E) 01:24:30 437.125 CW, 437.150 USB
MaSat-1 20 May 01:22:03 01:27:45 26° 105° (ESE) 01:32:49 437.345 MHz
Oscar 16 20 May 01:57:11 02:01:52 34° 97° (E) 02:06:31 437.025 USB, Beacon 2401.1428
AO-27 20 May 01:59:03 02:03:22 26° 95° (E) 02:07:40 436.795 MHz FM
KITSAT 1 20 May 02:04:27 02:10:23 22° 323° (NW) 02:16:22 435.175 FM
ITAMSAT 1 20 May 02:06:21 02:10:53 29° 96° (E) 02:15:24 435.822 SSB
Uribyol 2 20 May 02:47:41 02:52:56 77° 103° (ESE) 02:58:09 436.500 FM
Oscar 19 20 May 02:57:19 03:02:30 76° 285° (WNW) 03:07:38 437.125 CW, 437.150 USB
MaSat-1 20 May 03:02:37 03:09:45 61° 297° (WNW) 03:15:41 437.345 MHz
ISS 20 May 03:07:36 03:10:23 25° 133° (SE) 03:13:11 145.800 FM
Uosat F 20 May 03:16:19 03:19:54 19° 93° (E) 03:23:28 435.120 FM
RS-15 20 May 03:21:33 03:31:56 50° 250° (WSW) 03:42:09 29.354 - 29.394 USB, Beacon 29.352 USB
AO-Echo 20 May 03:25:15 03:29:55 57° 101° (E) 03:34:39 ?
TMSAT-1 20 May 03:27:02 03:29:35 13° 90° (E) 03:32:06 436.925 FM
Oscar 10/S400 20 May 03:35:13 04:38:49 12° 73° (ENE) 05:29:39 145.825 - 145.975 CW/USB, Beacon 145.810 USB
Oscar 16 20 May 03:36:43 03:41:06 28° 293° (WNW) 03:45:28 437.025 USB, Beacon 2401.1428
AO-27 20 May 03:38:11 03:42:58 38° 291° (WNW) 03:47:44 436.795 MHz FM
Gurwin Techsat 1B 20 May 03:45:15 03:49:58 31° 96° (E) 03:54:38 435.225 FM
ITAMSAT 1 20 May 03:45:44 03:50:22 33° 292° (WNW) 03:54:59 435.822 SSB
Uribyol 2 20 May 04:29:10 04:31:45 14° 300° (WNW) 04:34:20 436.500 FM
ISS 20 May 04:43:53 04:46:59 36° 330° (NNW) 04:50:07 145.800 FM
MaSat-1 20 May 04:50:27 04:52:46 12° 313° (NW) 04:54:57 437.345 MHz
Uosat F 20 May 04:54:08 04:58:55 46° 289° (WNW) 05:03:42 435.120 FM
TMSAT-1 20 May 05:04:43 05:10:01 71° 286° (WNW) 05:15:17 436.925 FM
AO-Echo 20 May 05:05:34 05:08:16 15° 296° (WNW) 05:10:59 ?
STRAND 1 20 May 05:08:19 05:11:42 18° 63° (ENE) 05:15:06 ?
AO-7 20 May 05:16:55 05:24:52 46° 100° (E) 05:32:46 29.400 - 29.500 MHz
Gurwin Techsat 1B 20 May 05:25:13 05:29:53 32° 292° (WNW) 05:34:31 435.225 FM
Saudisat 1A 20 May 05:30:34 05:33:50 20° 110° (ESE) 05:37:07 436.775 MHz
KITSAT 1 20 May 06:05:42 06:09:44 14° 26° (NNE) 06:13:46 435.175 FM
ISS 20 May 06:22:52 06:24:28 13° 349° (N) 06:26:04 145.800 FM
Hamsat 20 May 06:43:48 06:45:56 13° 91° (E) 06:48:04 145.90 MHz
STRAND 1 20 May 06:45:29 06:50:27 54° 259° (W) 06:55:28 ?
Sapphire 20 May 06:54:24 06:57:47 17° 104° (ESE) 07:01:10 437.095 MHz 1200 baud AX-25 AFSK
Saudisat 1A 20 May 07:08:49 07:13:12 45° 307° (NW) 07:17:38 436.775 MHz
AO-7 20 May 07:09:54 07:17:31 41° 298° (WNW) 07:25:08 29.400 - 29.500 MHz
SO-67 20 May 07:36:39 07:38:41 15° 93° (E) 07:40:43 435.3500 MHz FM
KITSAT 1 20 May 07:59:47 08:07:33 46° 51° (NE) 08:15:16 435.175 FM
ISS 20 May 08:00:48 08:02:20 13° 10° (N) 08:03:53 145.800 FM
PCSat 20 May 08:02:23 08:07:46 74° 116° (ESE) 08:13:12 145.825 MHz
SO-50 20 May 08:05:05 08:06:53 12° 107° (ESE) 08:08:42 436.795 FM
JAS-1B 20 May 08:06:28 08:12:09 39° 97° (E) 08:17:25 435.800 - 435.900 CW/SSB
Hamsat 20 May 08:18:04 08:22:17 51° 286° (WNW) 08:26:31 145.90 MHz
Sapphire 20 May 08:35:18 08:40:38 63° 301° (WNW) 08:46:02 437.095 MHz 1200 baud AX-25 AFSK
SO-67 20 May 09:09:03 09:12:14 31° 288° (WNW) 09:15:24 435.3500 MHz FM
ISS 20 May 09:36:44 09:39:51 34° 29° (NNE) 09:42:57 145.800 FM
SO-50 20 May 09:42:06 09:46:54 76° 303° (WNW) 09:51:40 436.795 FM
PCSat 20 May 09:48:05 09:51:47 18° 315° (NW) 09:55:31 145.825 MHz
KITSAT 1 20 May 09:55:23 10:02:52 42° 251° (WSW) 10:10:20 435.175 FM
JAS-1B 20 May 09:57:33 10:02:37 27° 298° (WNW) 10:07:19 435.800 - 435.900 CW/SSB
Oscar 11 20 May 10:08:57 10:12:58 35° 98° (E) 10:16:58 145.825 FM, Beacon 2401.500 USB
OPAL 20 May 10:10:32 10:13:42 17° 94° (E) 10:16:50 ?
HO-68 20 May 10:15:52 10:23:01 69° 104° (ESE) 10:30:09 435.675 MHz FM
Sapphire 20 May 10:23:26 10:25:12 12° 321° (NW) 10:26:59 437.095 MHz 1200 baud AX-25 AFSK
JAS-2 20 May 10:24:21 10:31:20 63° 100° (E) 10:37:27 435.800 - 435.900 CW/SSB, 435.910 FM
Oscar 10/S400 20 May 10:49:12 12:21:44 15° 280° (W) 14:54:47 145.825 - 145.975 CW/USB, Beacon 145.810 USB
ISS 20 May 11:13:33 11:16:30 28° 226° (SW) 11:19:27 145.800 FM
UOSAT-12 20 May 11:21:04 11:24:34 23° 112° (ESE) 11:28:06 437.025 FM, 437.400 FM
SO-50 20 May 11:26:16 11:28:19 13° 322° (NW) 11:30:22 436.795 FM
Oscar 11 20 May 11:45:46 11:48:58 20° 293° (WNW) 11:52:09 145.825 FM, Beacon 2401.500 USB
OPAL 20 May 11:48:02 11:52:55 53° 290° (WNW) 11:57:44 ?
MaSat-1 20 May 11:49:51 11:53:08 42° 60° (ENE) 11:55:50 437.345 MHz
HO-68 20 May 12:04:42 12:10:04 24° 302° (WNW) 12:15:27 435.675 MHz FM
JAS-2 20 May 12:10:20 12:15:39 24° 301° (WNW) 12:20:33 435.800 - 435.900 CW/SSB, 435.910 FM
Uribyol 2 20 May 12:28:54 12:31:20 14° 60° (ENE) 12:33:47 436.500 FM
Oscar 19 20 May 12:36:22 12:39:48 18° 63° (ENE) 12:43:14 437.125 CW, 437.150 USB
UOSAT-12 20 May 13:00:17 13:04:31 38° 308° (NW) 13:08:47 437.025 FM, 437.400 FM
PANSAT 20 May 13:00:46 13:02:07 12° 168° (SSE) 13:03:28 not established
Oscar 16 20 May 13:13:23 13:18:19 46° 71° (ENE) 13:23:17 437.025 USB, Beacon 2401.1428
AO-27 20 May 13:16:33 13:21:14 36° 69° (ENE) 13:25:57 436.795 MHz FM
ITAMSAT 1 20 May 13:23:43 13:28:31 41° 70° (ENE) 13:33:22 435.822 SSB
Saudisat 1A 20 May 13:58:13 14:01:08 17° 42° (NE) 14:04:02 436.775 MHz
Uribyol 2 20 May 14:04:59 14:10:09 78° 257° (WSW) 14:15:22 436.500 FM
Oscar 19 20 May 14:13:35 14:18:40 57° 259° (W) 14:23:49 437.125 CW, 437.150 USB
AO-7 20 May 14:28:51 14:31:55 13° 45° (NE) 14:34:59 29.400 - 29.500 MHz
Uosat F 20 May 14:29:02 14:33:05 26° 66° (ENE) 14:37:09 435.120 FM
AO-Echo 20 May 14:37:37 14:42:29 69° 75° (ENE) 14:47:15 ?
PANSAT 20 May 14:39:26 14:41:46 15° 181° (S) 14:44:05 not established
TMSAT-1 20 May 14:46:46 14:50:37 21° 64° (ENE) 14:54:29 436.925 FM
Oscar 16 20 May 14:54:03 14:57:53 21° 267° (W) 15:01:45 437.025 USB, Beacon 2401.1428
AO-27 20 May 14:56:31 15:00:49 26° 265° (W) 15:05:08 436.795 MHz FM
ITAMSAT 1 20 May 15:04:08 15:08:10 23° 266° (W) 15:12:14 435.822 SSB
Gurwin Techsat 1B 20 May 15:05:36 15:10:38 46° 71° (ENE) 15:15:41 435.225 FM
RS-15 20 May 15:32:05 15:42:02 32° 104° (ESE) 15:51:39 29.354 - 29.394 USB, Beacon 29.352 USB
Saudisat 1A 20 May 15:36:48 15:41:20 69° 241° (WSW) 15:45:45 436.775 MHz
Sapphire 20 May 15:42:07 15:45:15 15° 43° (NE) 15:48:23 437.095 MHz 1200 baud AX-25 AFSK
Uosat F 20 May 16:07:08 16:11:43 36° 262° (W) 16:16:19 435.120 FM
AO-7 20 May 16:14:54 16:22:55 57° 66° (ENE) 16:31:00 29.400 - 29.500 MHz
AO-Echo 20 May 16:19:57 16:21:42 12° 269° (W) 16:23:27 ?
PANSAT 20 May 16:20:21 16:21:24 11° 193° (SSW) 16:22:27 not established
TMSAT-1 20 May 16:25:04 16:30:11 50° 261° (W) 16:35:20 436.925 FM
SO-50 20 May 16:36:32 16:38:18 12° 38° (NE) 16:40:03 436.795 FM
Gurwin Techsat 1B 20 May 16:46:49 16:50:49 22° 267° (W) 16:54:50 435.225 FM
PCSat 20 May 16:51:15 16:56:33 50° 57° (ENE) 17:01:48 145.825 MHz
Sapphire 20 May 17:24:01 17:29:29 88° 61° (ENE) 17:34:55 437.095 MHz 1200 baud AX-25 AFSK
RS-15 20 May 17:41:27 17:53:31 74° 304° (NW) 18:05:06 29.354 - 29.394 USB, Beacon 29.352 USB
AO-7 20 May 18:08:57 18:16:02 31° 264° (W) 18:23:11 29.400 - 29.500 MHz
SO-50 20 May 18:15:09 18:19:43 78° 58° (ENE) 18:24:11 436.795 FM
PCSat 20 May 18:35:31 18:39:36 22° 254° (WSW) 18:43:40 145.825 MHz
JAS-1B 20 May 18:47:50 18:56:22 43° 67° (ENE) 19:03:48 435.800 - 435.900 CW/SSB
STRAND 1 20 May 18:56:50 19:01:53 54° 100° (E) 19:06:54 ?
Sapphire 20 May 19:10:29 19:12:06 11° 258° (WSW) 19:13:42 437.095 MHz 1200 baud AX-25 AFSK
Hamsat 20 May 19:11:12 19:15:23 79° 258° (WSW) 19:19:38 145.90 MHz
SO-67 20 May 19:43:36 19:47:10 82° 77° (ENE) 19:50:45 435.3500 MHz FM
UOSAT-12 20 May 19:51:02 19:54:24 20° 44° (NE) 19:57:45 437.025 FM, 437.400 FM
RS-15 20 May 19:58:49 20:08:18 27° 332° (NNW) 20:17:31 29.354 - 29.394 USB, Beacon 29.352 USB
SO-50 20 May 19:59:10 19:59:38 10° 254° (WSW) 20:00:06 436.795 FM
JAS-2 20 May 20:34:15 20:40:45 31° 63° (ENE) 20:47:22 435.800 - 435.900 CW/SSB, 435.910 FM
STRAND 1 20 May 20:37:10 20:40:39 19° 297° (WNW) 20:44:09 ?
JAS-1B 20 May 20:37:45 20:46:44 47° 261° (W) 20:54:37 435.800 - 435.900 CW/SSB
HO-68 20 May 20:43:28 20:50:14 48° 67° (ENE) 20:57:00 435.675 MHz FM
Oscar 11 20 May 21:03:59 21:07:34 26° 69° (ENE) 21:11:11 145.825 FM, Beacon 2401.500 USB
OPAL 20 May 21:24:09 21:28:38 30° 65° (ENE) 21:33:06 ?
UOSAT-12 20 May 21:30:24 21:34:54 55° 242° (WSW) 21:39:23 437.025 FM, 437.400 FM
JAS-2 20 May 22:17:45 22:25:14 59° 260° (W) 22:33:01 435.800 - 435.900 CW/SSB, 435.910 FM
RS-15 20 May 22:18:46 22:26:20 19° 8° (N) 22:33:41 29.354 - 29.394 USB, Beacon 29.352 USB
KITSAT 1 20 May 22:27:59 22:34:53 33° 107° (ESE) 22:41:49 435.175 FM
HO-68 20 May 22:31:53 22:38:04 32° 264° (W) 22:44:18 435.675 MHz FM
Oscar 11 20 May 22:40:07 22:43:43 26° 264° (W) 22:47:21 145.825 FM, Beacon 2401.500 USB

Developed and maintained by Chris Peat, Heavens-Above GmbH. Please read the updated FAQ before sending e-mail. Imprint. DLR
